Вернуться в каталог

OPS 6983

DMSP 5C F1

АктивенПогодаSSO
NORAD 7411·PAYLOAD·🇺🇸 United States

Запущен Aug 9, 1974 с Vandenberg Space Force Base

Loading…

Ближайшие Пролёты (ближайшие 24 часа)

TLE

СвежийSource: Space-Track

Эпоха: Sep 14, 2026, 12:21 UTC

1 07411U 74063A   26257.51492752  .00000161  00000-0  78589-4 0  9999
2 07411  98.5100  97.5214 0041981 104.3495 256.2353 14.29728049707135

Отслеживайте OPS 6983 в реальном времени с AllMySat

Download on the App Store